Location: Casilda
(33.0440°S, 61.1680°W)
Time: 01:22:04
(UTC-03:00)

ISS - Pass Details

Date: 28 January 2021
Orbit: 417 x 422 km, 51.6° (Epoch: 03 March)

Event Time Altitude Azimuth Distance (km) Brightness Sun altitude
Exits shadow 04:38:13 20° 222° (SW) 1,039 -1.8 -19.9°
Maximum altitude 04:38:31 21° 215° (SW) 1,032 -1.8 -19.9°
Drops below altitude 10° 04:41:10 10° 164° (SSE) 1,524 -0.1 -19.5°
Sets 04:43:39 0° 146° (SSE) 2,394 1.4 -19.1°
